Showing default

IRIDIUM 109, 41919

Orbit data source: Space-Track

IRIDIUM 109, 41919 is a payload satellite owned by Iridium (US) in LEO that was launched on Sat, 14 Jan 2017 UTC via an FALCON 9 launch vehicle from the Air Force Western Test Range (AFWTR). Payload-class satellites include a variety of spacecraft equipped with specific instruments for various scientific and technological missions. These include communications satellites like Starlink; space stations such as the ISS; scientific satellites like the Hubble; Earth observation satellites from companies like Planet Labs, Umbra, and HawkEye 360; GPS; miniature CubeSats for education and research; and military/defense satellites.

Loading next visibility...
Identifier
41919, 2017-003C
Orbit
LEO
Country
Flag of USUS
Related business
Manufacturer
OATK SSG Gilbert
Mission
Operational Commercial Communications
Bus & Motor
ELITEBUS, Unknown motor
Mass
860 kg wet, 700 kg dry
Launch date (UTC)
2017-01-14 (9 years ago)
Launch vehicle
FALCON 9
Launch site
Air Force Western Test Range (AFWTR)
Object type
Payload
Rocket body
Debris
Shape & HBR
Trap Box + 2 Pan, 4.8 m
Radar Cross Section
10.154 m², Large (>1 m²)

Expand to show TLE details & history
Last TLE update: 8 hours ago

TLE from 8 hours ago
0 IRIDIUM 109
1 41919U 17003C   26035.38942532  .00000351  00000-0  11841-3 0  9994
2 41919  86.4022 144.0201 0002117  95.9047 264.2390 14.34218063474165
Epoch: 2026-02-04T09:20Z
TLE epoch observation values (Epoch: 2026-02-04T09:20:46.347Z)
Latitude
-0.00005°
Longitude
-130.72972°
Altitude
780.87 km
Speed
7.463 km/s
True Right ascension
09h 36m 04s
True Declination
0° 00' 00"
Sunlit
Object was in full shadow at epoch
Visualization orbit readout
Latitude
Unknown
Longitude
Unknown
Altitude
Unknown
Speed
Unknown
Apparent Right ascension
Unknown
Apparent Declination
Unknown
Sunlit
N/A
Visualization observer readout
Local Sidereal Time
19:05:27
Azimuth
Unknown
Elevation
Unknown
Doppler factor
Unknown
Orbital elements
Apogee altitude
776.145 km
Perigee altitude
773.116 km
Semi-major axis
7,152.767 km
Eccentricity
0.00021
Inclination
86.4022°
RAAN
144.0201°
Arg. of periapsis
95.9047°
True anomaly
264.21486°
Mean anomaly
264.239°
Eccentric anomaly
264.22693°
Mean motion
3.58783 °/min
Orbital period
100.34 mins
BSTAR
0.00011841
Loading maneuver chart data...
Computing Atmospheric mass density...
Loading historical data...
Loading historical data...
Loading historical data...
Loading historical data...
Loading historical data...
Loading historical data...
Loading historical data...

Documentation

Showing up to 5 results
|